#timestamp,LO_Frequency,Hit,StdDev 
1580256015.5,286047006.1,N
1580256035.4,286047004.6,N
1580256055.2,286047005.9,N
1580256075.1,286047003.5,N
1580256076.0,286047003.5,N
1580256095.8,286047005.6,N
1580256115.6,286047007.5,Y
1580256135.5,286047000.9,P
1580256155.3,286046998.3,N
1580256175.1,286046999.0,N
1580256195.9,286046996.7,N
1580256215.7,286046997.0,N
1580256235.6,286046995.6,N
1580256255.4,286046996.8,N
1580256275.2,286046995.9,N
1580256295.1,286046994.1,N
1580256296.0,286046994.1,N
1580256315.8,286046997.9,N
1580256335.6,286046996.3,N
1580256355.5,286046996.1,N
1580256375.3,286046994.2,N
1580256395.2,286046994.7,N
1580256415.9,286046996.3,N
1580256435.7,286046995.7,N
1580256455.6,286046995.6,N
1580256475.4,286046995.6,N
1580256495.2,286046999.5,N
1580256515.1,286046997.9,N
1580256516.0,286046997.9,N
1580256535.8,286046996.8,N
1580256555.7,286046998.8,N
1580256575.5,286046997.2,N
1580256595.3,286046998.5,N
1580256615.2,286047000.1,N
1580256635.0,286047001.8,N
1580256635.9,286047001.8,N
1580256655.7,286047004.0,N
1580256675.6,286047001.8,N
1580256695.4,286047000.0,N
1580256715.3,286046998.5,N
1580256735.1,286046996.5,N
1580256736.0,286046996.5,N
1580256755.8,286046999.2,N
1580256775.7,286046999.2,N
1580256795.5,286046999.4,N
1580256815.3,286046997.1,N
1580256835.2,286046996.5,N
1580256855.0,286046996.7,N
1580256855.9,286046996.7,N
1580256875.8,286046996.5,N
1580256895.6,286046998.3,N
1580256915.4,286046999.9,N
1580256935.3,286047002.4,N
1580256955.1,286047002.1,N
1580256975.9,286047001.8,N
1580256995.7,286047001.9,N
1580257015.5,286047001.9,N
1580257035.4,286047003.5,N
1580257055.2,286047003.9,N
1580257075.1,286047007.5,Y
1580257076.0,286047007.5,P
1580257095.8,286047007.4,N
1580257115.6,286047005.1,N
1580257135.5,286047005.0,N
1580257155.3,286047003.4,N
1580257175.1,286047003.5,N
1580257195.9,286047001.9,N
1580257215.7,286047011.9,Y
1580257235.6,286046996.6,P
1580257255.4,286046999.2,N
1580257275.2,286046999.5,N
1580257295.1,286046997.0,N
1580257296.0,286046997.0,N
1580257315.8,286047000.8,N
1580257335.6,286046998.2,N
1580257355.5,286047000.6,N
1580257375.3,286046998.5,N
1580257395.2,286046998.3,N
1580257415.9,286046995.5,N
1580257435.7,286046995.7,N
1580257455.6,286046997.5,N
1580257475.4,286046994.9,N
1580257495.2,286046996.0,N
1580257515.1,286046995.8,N
1580257516.0,286046995.8,N
1580257535.8,286046997.4,N
1580257555.7,286047000.8,N
1580257575.5,286046998.3,N
1580257595.3,286046999.0,N
1580257615.2,286046996.6,N
1580257635.0,286046996.9,N
1580257635.9,286046996.9,N
1580257655.7,286046998.8,N
1580257675.6,286046996.8,N
1580257695.4,286046997.6,N
1580257715.3,286046999.6,N
1580257735.1,286046999.1,N
1580257736.0,286046999.1,N
1580257755.8,286046999.6,N
1580257775.7,286046998.4,N
1580257795.5,286046999.4,N
1580257815.3,286046997.8,N
1580257835.2,286046998.0,N
1580257855.0,286046997.4,N
1580257855.9,286046997.4,N
1580257875.8,286046999.0,N
1580257895.6,286046999.9,N
1580257915.4,286047002.2,N
1580257935.3,286047001.7,N
1580257955.1,286047000.1,N
1580257975.9,286047000.0,N
1580257995.7,286046998.7,N
1580258015.5,286047001.2,N
1580258035.4,286047001.0,N
1580258055.2,286047001.0,N
1580258075.0,286046998.9,N
1580258075.9,286046998.9,N
1580258095.8,286046999.5,N
1580258115.6,286046999.3,N
1580258135.5,286046998.2,N
1580258155.3,286046999.2,N
1580258175.1,286046997.5,N
1580258195.9,286046997.3,N
1580258215.7,286046997.2,N
1580258235.5,286046997.2,N
1580258255.4,286046995.4,Y
1580258275.2,286046996.8,P
1580258295.1,286046997.9,N
1580258296.0,286046997.9,N
1580258315.8,286047001.1,N
1580258335.6,286047002.7,N
1580258355.5,286047001.6,N
1580258375.3,286047003.3,N
1580258395.1,286047005.7,N
1580258415.9,286047004.0,N
1580258435.7,286046999.7,N
1580258455.6,286047001.6,N
1580258475.4,286047002.7,N
1580258495.2,286047002.7,N
1580258515.1,286047002.1,N
1580258516.0,286047002.1,N
1580258535.8,286047002.2,N
1580258555.7,286047002.4,N
1580258575.5,286047000.8,N
1580258595.3,286046997.0,N
1580258615.2,286046998.5,N
1580258635.0,286047000.4,N
1580258635.9,286047000.4,N
1580258655.7,286047000.7,N
1580258675.6,286047002.8,N
1580258695.4,286047000.9,N
1580258715.3,286046998.3,N
1580258735.1,286046998.4,N
1580258736.0,286046998.4,N
1580258755.8,286046998.8,N
1580258775.7,286047001.0,N
1580258795.5,286047000.5,N
1580258815.4,286047000.3,N
1580258835.2,286047000.4,N
1580258855.0,286046999.4,N
1580258855.9,286046999.4,N
1580258875.8,286046997.2,N
1580258895.6,286046997.3,N
1580258915.4,286046999.5,N
1580258935.3,286046996.6,N
1580258955.1,286046999.1,N
1580258975.9,286046997.3,N
1580258995.7,286046997.3,N
1580259015.5,286046995.0,N
1580259035.4,286046996.3,N
1580259055.2,286046995.9,N
1580259075.1,286046995.9,N
1580259076.0,286046995.9,N
1580259095.8,286046994.6,N
1580259115.6,286046993.9,Y
1580259135.5,286046998.0,P
1580259155.3,286046995.6,P
1580259175.2,286046997.3,N
1580259195.9,286046998.0,N
1580259215.7,286046997.9,N
1580259235.6,286046998.0,N
1580259255.4,286046996.7,Y
1580259275.2,286047002.6,P
1580259295.1,286047002.8,N
1580259296.0,286047002.8,N
1580259315.8,286047000.9,N
1580259335.7,286047000.0,N
1580259355.5,286046999.9,N
1580259375.3,286047001.8,N
1580259395.2,286047003.7,N
1580259415.0,286047004.5,N
1580259415.9,286047004.5,N
1580259435.8,286047005.3,N
1580259455.6,286047005.5,N
1580259475.4,286047003.0,N
1580259495.3,286047005.9,N
1580259515.1,286047003.9,N
1580259516.0,286047003.9,N
1580259535.8,286047004.4,N
1580259555.7,286047002.6,N
1580259575.5,286047002.7,N
1580259595.3,286047000.2,N
